| time (UTC) | temp C | wind direction | speed KPH | gust KPH | rain 1hr cm | rain 24hr cm | rain mn cm | humidity % | barometer mb |
| 20260510203016 | 15 | 30 | 0.0 | 17.7 | 0.00 | 0.94 | 0.05 | 39 | 1019.1 |
| 20260510201525 | 15 | 259 | 1.6 | 11.3 | 0.00 | 0.94 | 0.05 | 35 | 1019.2 |
| 20260510200024 | 15 | 274 | 1.6 | 17.7 | 0.00 | 0.94 | 0.05 | 40 | 1019.3 |
| 20260510194513 | 15 | 130 | 1.6 | 9.7 | 0.00 | 0.94 | 0.05 | 40 | 1019.3 |
| 20260510193019 | 15 | 108 | 1.6 | 9.7 | 0.00 | 0.94 | 0.05 | 40 | 1019.2 |
| 20260510191505 | 15 | 269 | 8.0 | 20.9 | 0.00 | 0.94 | 0.05 | 38 | 1019.3 |
| 20260510190011 | 15 | 299 | 6.4 | 11.3 | 0.00 | 0.94 | 0.05 | 42 | 1019.3 |
| 20260510184504 | 15 | 77 | 0.0 | 12.9 | 0.00 | 0.94 | 0.05 | 42 | 1019.0 |
| 20260510183004 | 15 | 71 | 0.0 | 19.3 | 0.00 | 0.94 | 0.05 | 39 | 1018.9 |
| 20260510181504 | 15 | 58 | 3.2 | 14.5 | 0.00 | 0.94 | 0.05 | 33 | 1018.7 |
| 20260510180008 | 15 | 143 | 3.2 | 8.0 | 0.00 | 0.94 | 0.05 | 31 | 1018.7 |
| 20260510174506 | 15 | 56 | 1.6 | 8.0 | 0.00 | 0.94 | 0.05 | 36 | 1018.6 |
| 20260510173005 | 15 | 166 | 0.0 | 14.5 | 0.00 | 0.94 | 0.05 | 37 | 1018.6 |
| 20260510171516 | 15 | 125 | 0.0 | 9.7 | 0.00 | 0.94 | 0.05 | 38 | 1018.8 |
| 20260510170010 | 15 | 71 | 6.4 | 20.9 | 0.00 | 0.94 | 0.05 | 38 | 1018.7 |
| 20260510164504 | 15 | 122 | 1.6 | 8.0 | 0.00 | 0.94 | 0.05 | 37 | 1018.6 |
| 20260510163007 | 15 | 148 | 0.0 | 9.7 | 0.00 | 0.94 | 0.05 | 42 | 1018.5 |
| 20260510161520 | 14 | 228 | 1.6 | 9.7 | 0.00 | 0.94 | 0.05 | 44 | 1018.4 |
| 20260510160009 | 14 | 52 | 8.0 | 12.9 | 0.05 | 0.94 | 0.05 | 43 | 1018.4 |
| 20260510154512 | 13 | 227 | 3.2 | 8.0 | 0.05 | 0.94 | 0.05 | 50 | 1018.2 |
| 20260510153007 | 13 | 146 | 0.0 | 11.3 | 0.05 | 0.94 | 0.05 | 49 | 1017.8 |
| 20260510151522 | 13 | 90 | 1.6 | 16.1 | 0.05 | 0.94 | 0.05 | 50 | 1017.9 |
| 20260510150010 | 13 | 94 | 0.0 | 11.3 | 0.00 | 0.89 | 0.00 | 53 | 1017.6 |
| 20260510144512 | 13 | 40 | 0.0 | 9.7 | 0.00 | 0.89 | 0.00 | 52 | 1017.6 |
| 20260510143011 | 12 | 91 | 0.0 | 11.3 | 0.00 | 0.89 | 0.00 | 53 | 1017.4 |
| 20260510141508 | 12 | 74 | 3.2 | 12.9 | 0.00 | 0.89 | 0.00 | 51 | 1017.4 |
| 20260510140013 | 11 | 79 | 1.6 | 14.5 | 0.00 | 0.89 | 0.00 | 53 | 1017.7 |
| 20260510134512 | 11 | 71 | 1.6 | 12.9 | 0.00 | 0.89 | 0.00 | 53 | 1017.6 |
| 20260510133012 | 11 | 66 | 4.8 | 11.3 | 0.00 | 0.89 | 0.00 | 52 | 1017.4 |
| 20260510131514 | 11 | 8 | 1.6 | 17.7 | 0.00 | 0.89 | 0.00 | 56 | 1017.2 |
| 20260510130010 | 11 | 146 | 0.0 | 9.7 | 0.00 | 0.89 | 0.00 | 63 | 1016.6 |
| 20260510124510 | 10 | 51 | 3.2 | 9.7 | 0.00 | 0.89 | 0.00 | 66 | 1016.4 |
| 20260510123016 | 9 | 56 | 0.0 | 11.3 | 0.00 | 0.89 | 0.00 | 69 | 1016.1 |
| 20260510121513 | 8 | 24 | 3.2 | 8.0 | 0.00 | 0.89 | 0.00 | 71 | 1016.3 |
| 20260510120014 | 8 | 100 | 0.0 | 9.7 | 0.00 | 0.89 | 0.00 | 74 | 1015.9 |
| 20260510114520 | 8 | 94 | 0.0 | 4.8 | 0.00 | 0.89 | 0.00 | 78 | 1015.6 |
| 20260510113013 | 8 | 44 | 0.0 | 4.8 | 0.00 | 0.89 | 0.00 | 78 | 1015.3 |
| 20260510111527 | 8 | 26 | 1.6 | 8.0 | 0.00 | 0.89 | 0.00 | 79 | 1015.0 |
| 20260510110033 | 8 | 306 | 0.0 | 6.4 | 0.00 | 0.89 | 0.00 | 81 | 1014.4 |
| 20260510104520 | 8 | 106 | 0.0 | 6.4 | 0.00 | 0.89 | 0.00 | 83 | 1014.3 |
| 20260510103019 | 8 | 79 | 0.0 | 3.2 | 0.00 | 0.89 | 0.00 | 83 | 1013.7 |
| 20260510101514 | 8 | 36 | 0.0 | 3.2 | 0.00 | 0.89 | 0.00 | 84 | 1013.5 |
| 20260510100002 | 8 | 91 | 0.0 | 1.6 | 0.00 | 0.89 | 0.00 | 85 | 1013.2 |
| 20260510094507 | 8 | 112 | 0.0 | 1.6 | 0.00 | 0.89 | 0.00 | 87 | 1013.3 |
| 20260510093005 | 7 | 142 | 0.0 | 0.0 | 0.00 | 0.89 | 0.00 | 90 | 1013.0 |
| 20260510091503 | 7 | 142 | 0.0 | 0.0 | 0.00 | 0.89 | 0.00 | 91 | 1012.7 |
| 20260510090019 | 7 | 142 | 0.0 | 0.0 | 0.00 | 0.89 | 0.00 | 90 | 1012.5 |
| 20260510084514 | 7 | 142 | 0.0 | 0.0 | 0.00 | 0.89 | 0.00 | 89 | 1012.4 |
| 20260510083013 | 7 | 142 | 0.0 | 0.0 | 0.00 | 0.89 | 0.00 | 88 | 1011.9 |
| 20260510081507 | 7 | 142 | 0.0 | 0.0 | 0.00 | 0.89 | 0.00 | 87 | 1011.9 |
| 20260510080009 | 8 | 142 | 0.0 | 0.0 | 0.00 | 0.89 | 0.00 | 86 | 1011.7 |
| 20260510074505 | 8 | 142 | 0.0 | 1.6 | 0.00 | 0.89 | 0.00 | 85 | 1011.5 |
| 20260510073022 | 8 | 142 | 0.0 | 1.6 | 0.00 | 0.89 | 0.00 | 83 | 1011.1 |
| 20260510071506 | 8 | 142 | 0.0 | 0.0 | 0.00 | 0.89 | 0.00 | 81 | 1011.0 |
| 20260510070013 | 9 | 95 | 0.0 | 1.6 | 0.00 | 0.89 | 0.00 | 78 | 1011.0 |
| 20260510064514 | 10 | 130 | 0.0 | 6.4 | 0.00 | 0.89 | 0.00 | 76 | 1010.9 |
| 20260510063010 | 10 | 46 | 0.0 | 9.7 | 0.00 | 0.89 | 0.00 | 76 | 1010.7 |
| 20260510061507 | 10 | 75 | 0.0 | 11.3 | 0.00 | 0.89 | 0.00 | 77 | 1010.6 |
| 20260510060007 | 10 | 13 | 0.0 | 17.7 | 0.00 | 0.89 | 0.00 | 82 | 1010.3 |
| 20260510054512 | 11 | 207 | 4.8 | 14.5 | 0.00 | 0.89 | 0.00 | 90 | 1010.0 |
| 20260510053016 | 11 | 29 | 0.0 | 4.8 | 0.00 | 0.89 | 0.00 | 93 | 1009.6 |
| 20260510051516 | 12 | 207 | 0.0 | 0.0 | 0.00 | 0.89 | 0.00 | 92 | 1009.3 |
| 20260510050011 | 12 | 207 | 0.0 | 1.6 | 0.00 | 0.89 | 0.00 | 91 | 1009.1 |
| 20260510044513 | 12 | 358 | 0.0 | 3.2 | 0.00 | 0.89 | 0.00 | 91 | 1008.6 |
| 20260510043016 | 12 | 319 | 1.6 | 4.8 | 0.00 | 0.89 | 0.00 | 91 | 1008.5 |
| 20260510041516 | 12 | 221 | 0.0 | 1.6 | 0.05 | 0.91 | 0.00 | 90 | 1007.7 |
| 20260510040026 | 12 | 226 | 0.0 | 1.6 | 0.18 | 0.94 | 0.00 | 91 | 1007.7 |
| 20260510034520 | 12 | 224 | 0.0 | 1.6 | 0.20 | 0.94 | 0.94 | 89 | 1007.6 |
| 20260510033018 | 13 | 204 | 0.0 | 6.4 | 0.20 | 0.94 | 0.94 | 88 | 1007.6 |
| 20260510031519 | 13 | 292 | 0.0 | 4.8 | 0.15 | 0.89 | 0.89 | 86 | 1007.8 |
| 20260510030020 | 13 | 249 | 4.8 | 14.5 | 0.05 | 0.76 | 0.76 | 85 | 1007.6 |
| 20260510024524 | 13 | 240 | 3.2 | 11.3 | 0.03 | 0.74 | 0.74 | 84 | 1007.8 |
| 20260510023024 | 13 | 203 | 1.6 | 4.8 | 0.03 | 0.74 | 0.74 | 85 | 1007.8 |
| 20260510021534 | 13 | 271 | 0.0 | 17.7 | 0.03 | 0.74 | 0.74 | 85 | 1007.4 |
| 20260510020014 | 12 | 238 | 11.3 | 24.1 | 0.00 | 0.71 | 0.71 | 90 | 1008.0 |
| 20260510014517 | 12 | 193 | 0.0 | 0.0 | 0.00 | 0.71 | 0.71 | 89 | 1007.0 |
| 20260510013028 | 12 | 193 | 0.0 | 0.0 | 0.00 | 0.71 | 0.71 | 88 | 1006.9 |
| 20260510011525 | 13 | 193 | 0.0 | 1.6 | 0.00 | 0.71 | 0.71 | 86 | 1006.7 |
| 20260510010028 | 13 | 248 | 0.0 | 3.2 | 0.00 | 0.71 | 0.71 | 85 | 1006.7 |
| 20260510004524 | 13 | 265 | 0.0 | 4.8 | 0.00 | 0.74 | 0.71 | 84 | 1006.7 |
| 20260510003020 | 13 | 237 | 3.2 | 8.0 | 0.00 | 0.74 | 0.71 | 84 | 1006.7 |
| 20260510001530 | 13 | 254 | 1.6 | 8.0 | 0.03 | 0.74 | 0.71 | 84 | 1006.6 |
| 20260510000028 | 14 | 231 | 6.4 | 16.1 | 0.05 | 0.76 | 0.71 | 83 | 1006.7 |
| 20260509234527 | 13 | 282 | 8.0 | 14.5 | 0.46 | 0.79 | 0.71 | 84 | 1006.6 |
| 20260509233025 | 13 | 239 | 6.4 | 19.3 | 0.66 | 0.81 | 0.71 | 86 | 1006.5 |
| 20260509231522 | 13 | 276 | 6.4 | 14.5 | 0.64 | 0.81 | 0.69 | 87 | 1006.5 |
| 20260509230027 | 13 | 261 | 9.7 | 37.0 | 0.61 | 0.84 | 0.66 | 87 | 1006.8 |
| 20260509224519 | 15 | 268 | 16.1 | 27.4 | 0.20 | 0.46 | 0.25 | 82 | 1007.0 |
| 20260509223030 | 20 | 18 | 12.9 | 27.4 | 0.00 | 0.28 | 0.05 | 57 | 1006.1 |
| 20260509221530 | 20 | 260 | 9.7 | 30.6 | 0.00 | 0.30 | 0.05 | 55 | 1004.2 |
| 20260509220022 | 21 | 219 | 14.5 | 35.4 | 0.00 | 0.33 | 0.05 | 54 | 1004.2 |
| 20260509214536 | 21 | 255 | 12.9 | 32.2 | 0.00 | 0.38 | 0.05 | 53 | 1004.1 |
| 20260509213028 | 21 | 185 | 14.5 | 32.2 | 0.00 | 0.43 | 0.05 | 51 | 1004.2 |
| 20260509211525 | 21 | 236 | 16.1 | 29.0 | 0.00 | 0.43 | 0.05 | 53 | 1003.9 |
| 20260509210034 | 21 | 213 | 17.7 | 30.6 | 0.00 | 0.43 | 0.05 | 51 | 1004.2 |
| 20260509204530 | 21 | 203 | 16.1 | 27.4 | 0.00 | 0.43 | 0.05 | 54 | 1004.6 |